User: anonymous   Login
Location: Armidale
(30.5016°S, 151.6662°E)
Time: 10:46:03
(UTC+10:00)
Language:

JY1SAT - Orbit

View from above orbital plane
View from above orbital plane
View from above satellite
View from above satellite

Ground track
Ground track

The orbit data is extracted from the following two-line orbital elements,

1 43803U 18099AX  21206.46108706  .00000696  00000-0  67264-4 0  9998
2 43803  97.6612 276.2585 0013563 284.3712  75.6003 14.95907928144173
Epoch (UTC): 25 July 2021 11:03:57
Eccentricity: 0.0013563
inclination: 97.6612°
perigee height: 570 km
apogee height: 589 km
right ascension of ascending node: 276.2585°
argument of perigee: 284.3712°
revolutions per day: 14.95907928
mean anomaly at epoch: 75.6003°
orbit number at epoch: 14417

The dashed part of the orbit path shows where the satellite is in the earth's shadow,  

DLR